When you browse on this site, cookies collect data to enhance your experience and personalize the content and advertising you see.
Visit our Privacy Policy to learn more. By continuing to use the site, you agree to this use of cookies and data.
  • Em Portugal
  • Lista de países
  • Para 7 dias
  • Temperatura da água
  • Mapas de satélite
  • Mapa do tempo
  • Widgets de tempo
  • user-avatar
    Iniciar Sessão

    Previsão horária em Porto-Novo

    Hoje, 16 Fevereiro, Sábado

    Tempo Temperatura Precipitação Vento Pressão Humidade
    00:00 +30°C° 0 mm 2 m/s 758 mmHg 76%
    01:00 +29°C° 0 mm 1 m/s 758 mmHg 79%
    02:00 +29°C° 0 mm 1 m/s 757 mmHg 81%
    03:00 +29°C° 0 mm 1 m/s 757 mmHg 83%
    04:00 +28°C° 0 mm 1 m/s 757 mmHg 84%
    05:00 +28°C° 0 mm 1 m/s 757 mmHg 86%
    06:00 +28°C° 0 mm 1 m/s 758 mmHg 88%
    07:00 +30°C° 0 mm 1 m/s 758 mmHg 75%
    08:00 +30°C° 0 mm 0 m/s 758 mmHg 63%
    09:00 +33°C° 0 mm 0 m/s 759 mmHg 50%
    10:00 +36°C° 0 mm 1 m/s 758 mmHg 42%
    11:00 +39°C° 0 mm 2 m/s 758 mmHg 34%
    12:00 +40°C° 0 mm 3 m/s 758 mmHg 26%
    13:00 +39°C° 0 mm 3 m/s 757 mmHg 31%
    14:00 +38°C° 0 mm 4 m/s 756 mmHg 36%
    15:00 +39°C° 0 mm 5 m/s 756 mmHg 41%
    16:00 +36°C° 0 mm 5 m/s 756 mmHg 48%
    17:00 +34°C° 0 mm 5 m/s 756 mmHg 55%
    18:00 +32°C° 0 mm 5 m/s 756 mmHg 62%
    19:00 +32°C° 0 mm 4 m/s 757 mmHg 66%
    20:00 +30°C° 0 mm 4 m/s 757 mmHg 70%
    21:00 +30°C° 0 mm 4 m/s 758 mmHg 74%
    22:00 +30°C° 0 mm 4 m/s 758 mmHg 75%
    23:00 +30°C° 0 mm 4 m/s 758 mmHg 76%

    Amanhã, 17 Fevereiro, Domingo

    Tempo Temperatura Precipitação Vento Pressão Humidade
    00:00 +29°C° 0 mm 3 m/s 758 mmHg 77%
    01:00 +29°C° 0 mm 3 m/s 758 mmHg 79%
    02:00 +29°C° 0 mm 3 m/s 757 mmHg 81%
    03:00 +28°C° 0 mm 2 m/s 757 mmHg 83%
    04:00 +28°C° 0 mm 2 m/s 757 mmHg 84%
    05:00 +28°C° 0 mm 1 m/s 757 mmHg 85%
    06:00 +28°C° 0 mm 1 m/s 757 mmHg 87%
    07:00 +29°C° 0 mm 1 m/s 758 mmHg 78%
    08:00 +31°C° 0 mm 1 m/s 758 mmHg 70%
    09:00 +33°C° 0 mm 1 m/s 759 mmHg 62%
    10:00 +34°C° 0 mm 1 m/s 759 mmHg 55%
    11:00 +37°C° 0 mm 2 m/s 758 mmHg 49%
    12:00 +38°C° 0 mm 2 m/s 758 mmHg 43%
    13:00 +38°C° 0 mm 3 m/s 757 mmHg 44%
    14:00 +38°C° 0 mm 4 m/s 756 mmHg 45%
    15:00 +37°C° 0 mm 5 m/s 755 mmHg 47%
    16:00 +36°C° 0 mm 4 m/s 755 mmHg 53%
    17:00 +34°C° 0 mm 4 m/s 755 mmHg 59%
    18:00 +32°C° 0 mm 4 m/s 755 mmHg 65%
    19:00 +32°C° 0 mm 4 m/s 756 mmHg 68%
    20:00 +32°C° 0 mm 4 m/s 757 mmHg 70%
    21:00 +30°C° 0 mm 4 m/s 758 mmHg 73%
    22:00 +30°C° 0 mm 3 m/s 757 mmHg 73%
    23:00 +30°C° 0 mm 3 m/s 757 mmHg 74%

    Depois de amanhã, 18 Fevereiro, Segunda-feira

    Tempo Temperatura Precipitação Vento Pressão Humidade
    00:00 +30°C° 0 mm 3 m/s 757 mmHg 75%
    01:00 +29°C° 0 mm 3 m/s 757 mmHg 76%
    02:00 +29°C° 0 mm 3 m/s 756 mmHg 77%
    03:00 +29°C° 0 mm 3 m/s 756 mmHg 78%
    04:00 +29°C° 0 mm 3 m/s 756 mmHg 79%
    05:00 +29°C° 0 mm 3 m/s 756 mmHg 81%
    06:00 +28°C° 0 mm 2 m/s 756 mmHg 83%
    07:00 +29°C° 0 mm 2 m/s 757 mmHg 77%
    08:00 +31°C° 0 mm 3 m/s 757 mmHg 72%
    09:00 +33°C° 0 mm 3 m/s 758 mmHg 67%
    10:00 +34°C° 0 mm 3 m/s 757 mmHg 60%
    11:00 +36°C° 0 mm 3 m/s 757 mmHg 54%
    12:00 +38°C° 0 mm 4 m/s 757 mmHg 47%
    13:00 +37°C° 0 mm 4 m/s 756 mmHg 48%
    14:00 +37°C° 0 mm 5 m/s 755 mmHg 48%
    15:00 +37°C° 0 mm 5 m/s 754 mmHg 49%
    16:00 +36°C° 0 mm 5 m/s 754 mmHg 55%
    17:00 +34°C° 0 mm 5 m/s 754 mmHg 61%
    18:00 +32°C° 0 mm 5 m/s 754 mmHg 67%
    19:00 +32°C° 0 mm 5 m/s 755 mmHg 70%
    20:00 +32°C° 0 mm 5 m/s 756 mmHg 73%
    21:00 +30°C° 0 mm 4 m/s 756 mmHg 76%
    22:00 +30°C° 0 mm 4 m/s 756 mmHg 77%
    23:00 +30°C° 0 mm 4 m/s 756 mmHg 77%

    19 Fevereiro, Terça-feira

    Tempo Temperatura Precipitação Vento Pressão Humidade
    00:00 +30°C° 0 mm 4 m/s 756 mmHg 78%
    01:00 +30°C° 0 mm 4 m/s 756 mmHg 79%
    02:00 +29°C° 0 mm 4 m/s 755 mmHg 80%
    03:00 +29°C° 0 mm 4 m/s 755 mmHg 80%
    04:00 +29°C° 0 mm 3 m/s 755 mmHg 81%
    05:00 +29°C° 0 mm 3 m/s 755 mmHg 82%
    06:00 +29°C° 0 mm 2 m/s 756 mmHg 82%
    07:00 +30°C° 0 mm 3 m/s 756 mmHg 75%
    08:00 +33°C° 0 mm 3 m/s 757 mmHg 68%
    09:00 +34°C° 0 mm 3 m/s 757 mmHg 61%
    10:00 +36°C° 0 mm 3 m/s 757 mmHg 56%
    11:00 +37°C° 0 mm 4 m/s 756 mmHg 51%
    12:00 +38°C° 0 mm 4 m/s 756 mmHg 46%
    13:00 +38°C° 0.2 mm 4 m/s 755 mmHg 48%
    14:00 +37°C° 0.2 mm 4 m/s 754 mmHg 50%
    15:00 +37°C° 0.2 mm 4 m/s 753 mmHg 52%
    16:00 +35°C° 0 mm 4 m/s 753 mmHg 57%
    17:00 +34°C° 0 mm 4 m/s 753 mmHg 62%
    18:00 +33°C° 0 mm 4 m/s 754 mmHg 68%
    19:00 +32°C° 0 mm 4 m/s 754 mmHg 71%
    20:00 +32°C° 0 mm 4 m/s 755 mmHg 74%
    21:00 +30°C° 0 mm 4 m/s 756 mmHg 78%
    22:00 +30°C° 0 mm 4 m/s 756 mmHg 79%
    23:00 +30°C° 0 mm 4 m/s 756 mmHg 79%

    20 Fevereiro, Quarta-feira

    Tempo Temperatura Precipitação Vento Pressão Humidade
    00:00 +30°C° 0 mm 5 m/s 756 mmHg 80%
    01:00 +30°C° 0 mm 4 m/s 755 mmHg 80%
    02:00 +30°C° 0 mm 4 m/s 755 mmHg 80%
    03:00 +30°C° 0 mm 4 m/s 754 mmHg 80%
    04:00 +30°C° 0.1 mm 4 m/s 755 mmHg 80%
    05:00 +30°C° 0.1 mm 4 m/s 755 mmHg 80%
    06:00 +30°C° 0.1 mm 4 m/s 756 mmHg 81%
    07:00 +32°C° 0 mm 4 m/s 756 mmHg 75%
    08:00 +33°C° 0 mm 4 m/s 757 mmHg 69%
    09:00 +34°C° 0 mm 4 m/s 757 mmHg 63%
    10:00 +34°C° 0 mm 4 m/s 757 mmHg 62%
    11:00 +35°C° 0 mm 4 m/s 757 mmHg 60%
    12:00 +35°C° 0 mm 4 m/s 756 mmHg 59%
    13:00 +36°C° 0.1 mm 4 m/s 755 mmHg 57%
    14:00 +36°C° 0.1 mm 4 m/s 755 mmHg 54%
    15:00 +37°C° 0.1 mm 4 m/s 754 mmHg 51%
    16:00 +36°C° 0 mm 4 m/s 754 mmHg 57%
    17:00 +34°C° 0 mm 4 m/s 755 mmHg 63%
    18:00 +33°C° 0 mm 5 m/s 755 mmHg 69%
    19:00 +32°C° 0 mm 5 m/s 756 mmHg 71%
    20:00 +32°C° 0 mm 5 m/s 756 mmHg 74%
    21:00 +32°C° 0 mm 5 m/s 757 mmHg 77%
    22:00 +30°C° 0 mm 5 m/s 757 mmHg 78%
    23:00 +30°C° 0 mm 5 m/s 757 mmHg 79%

    21 Fevereiro, Quinta-feira

    Tempo Temperatura Precipitação Vento Pressão Humidade
    00:00 +30°C° 0 mm 5 m/s 757 mmHg 81%
    01:00 +30°C° 0 mm 4 m/s 756 mmHg 81%
    02:00 +30°C° 0 mm 4 m/s 756 mmHg 81%
    03:00 +30°C° 0 mm 4 m/s 756 mmHg 81%
    04:00 +30°C° 0 mm 4 m/s 756 mmHg 81%
    05:00 +30°C° 0 mm 4 m/s 756 mmHg 80%
    06:00 +29°C° 0 mm 4 m/s 757 mmHg 80%
    07:00 +32°C° 0 mm 4 m/s 757 mmHg 74%
    08:00 +33°C° 0 mm 4 m/s 758 mmHg 67%
    09:00 +35°C° 0 mm 4 m/s 758 mmHg 61%
    10:00 +36°C° 0 mm 4 m/s 758 mmHg 57%
    11:00 +37°C° 0 mm 4 m/s 757 mmHg 53%
    12:00 +38°C° 0 mm 4 m/s 757 mmHg 49%
    13:00 +39°C° 0 mm 5 m/s 756 mmHg 49%
    14:00 +39°C° 0 mm 5 m/s 755 mmHg 48%
    15:00 +39°C° 0 mm 5 m/s 755 mmHg 48%
    16:00 +36°C° 0.2 mm 5 m/s 755 mmHg 54%
    17:00 +34°C° 0.2 mm 5 m/s 755 mmHg 61%
    18:00 +33°C° 0.2 mm 5 m/s 756 mmHg 67%
    19:00 +32°C° 0.1 mm 5 m/s 756 mmHg 70%
    20:00 +32°C° 0.1 mm 5 m/s 757 mmHg 73%
    21:00 +30°C° 0.1 mm 4 m/s 758 mmHg 76%
    22:00 +30°C° 0 mm 4 m/s 757 mmHg 77%
    23:00 +30°C° 0 mm 4 m/s 757 mmHg 79%
    Mostrar mais